Regional Weather Roundup
Issued by NWS Charleston, SC

Current Version | Previous Version | Graphics & Text | Print | Product List | Glossary On
Versions: 1 2 3 4 5 6 7 8 9 10 11 12 13 14 15 16 17 18 19 20 21 22 23 24 25 26 27 28 29 30 31 32 33 34 35 36 37 38 39 40 41 42 43 44 45 46 47 48 49 50
000
ASUS42 KCHS 241010
RWRCHS
REGIONAL WEATHER ROUNDUP
NATIONAL WEATHER SERVICE CHARLESTON SC
600 AM EDT THU JUL 24 2014

NOTE: "FAIR" INDICATES FEW OR NO CLOUDS BELOW 12,000 FEET WITH NO
SIGNIFICANT WEATHER AND/OR OBSTRUCTIONS TO VISIBILITY.

NOT ALL STATIONS ARE QUALITY CONTROLLED BY THE NATIONAL
WEATHER SERVICE. USE DATA WITH CAUTION...ESPECIALLY
DEWPOINT OBSERVATIONS.

SCZ027-030-031-034>040-042>050-241100-
...SOUTH CAROLINA...

CITY           SKY/WX    TMP DP  RH WIND       PRES   REMARKS
N CHARLESTON   PTCLDY    80  76  87 SW7       29.95R
WATERFRONT PRK   N/A     81 N/A N/A SW7         N/A
FORT JOHNSON   NOT AVBL
MOUNT PLEASANT FAIR      81  79  94 SW6       29.95R
JOHNS ISLAND   SUNNY     81  72  74 CALM      29.96R
PINOPOLIS        N/A     81  77  89 SW9       29.87F
MONCKS CORNER    N/A     79  79 100 SW5       29.95R
SUMMERVILLE    FAIR      77  77 100 CALM      29.96R
BEAUFORT MCAS  CLEAR     78  75  90 W8        29.96R
BEAUFORT ARPT  FAIR      79  77  94 SW3       29.96R
HILTON HEAD IS NOT AVBL
GEORGETOWN     NOT AVBL
WALTERBORO     SUNNY     77 N/A N/A SW3       29.96S
ORANGEBURG     CLEAR     75  73  93 SW6       29.95R
BARNWELL       FAIR      75  75 100 SW5       29.96S
AIKEN          FAIR      73  73 100 SW3       29.99R
MANNING        FAIR      79 N/A N/A SW5       29.94S
KINGSTREE      NOT AVBL
COLUMBIA       CLEAR     78  73  84 W5        29.93R
SUMTER         CLEAR     75  75 100 S2        29.91S
FLORENCE       CLEAR     76  74  93 SW6       29.92F
MYRTLE BEACH   CLEAR     79  75  89 SW8       29.94S
N MYRTLE BEACH PTCLDY    78  75  90 VRB5      29.93S

$$

GAZ063-065-086>088-099>101-113>116-118-119-134-136>141-150-241100-
...GEORGIA...

CITY           SKY/WX    TMP DP  RH WIND       PRES   REMARKS
SAVANNAH ARPT  CLEAR     77  73  87 W6        29.98R
HUNTER AAF     CLEAR     77  74  91 W7        29.96R
FORT STEWART   CLEAR     76  73  89 SW5       29.97S
STATESBORO     NOT AVBL
SYLVANIA       SUNNY     76  76 100 CALM      29.98R
CLAXTON        FAIR     N/A N/A N/A CALM      29.98S HAZE
THOMSON        CLEAR     76  76 100 SW3       30.00R
AUGUSTA-BUSH   CLEAR     75  71  87 SW7       29.94R
AUGUSTA-DANIEL CLEAR     76  72  87 SW3       29.96R
SWAINSBORO     FAIR      75  75 100 CALM      29.98S
VIDALIA          N/A     73  72  94 SW5       29.99S
ALMA           CLEAR     73  70  90 CALM      29.99S
WAYCROSS       CLEAR     76  75  98 SW3       30.00S
JESUP          NOT AVBL
BRUNSWICK      CLEAR     77  72  83 CALM      30.00R
SAINT SIMONS   CLEAR     77  73  87 W5        29.99R

$$

SCZ027-028-034-036>038-045-046-048>050-GAZ119-141-241100-
...LAKE AND SUPPLEMENTAL COASTAL OBSERVATIONS...

STATION/POSITION TIME  TEMP    WIND        PRES    WAVE   SWELL
                       AIR SEA DIR/SP/G            HT/PER HT/PER/DIR
                 (UTC) (F)     (DEG/KT/KT) (MB)    (FT/S) (FT/S/D)
UPR LAKE MARION  NOT AVBL
WINYAH BAY       0900   78     240/  4     1013.0S
LAKE MURRAY      0900   79     230/ 10/ 12 1012.9R
ACE BASIN NERRS  0900   80     240/  1     1014.0S
FORT PULASKI     0900   79     250/  5/  7 1015.0R
SAPELO ISLAND    0900   80     250/  7     1015.0S

$$

ANZ835-935-AMZ111-154-330-350-352-354-374-450-454-472-241100-
...C-MAN AND BUOY OBSERVATIONS...

STATION/POSITION TIME  TEMP    WIND        PRES    WAVE   SWELL
                       AIR SEA DIR/SP/G            HT/PER HT/PER/DIR
                 (UTC) (F)     (DEG/KT/KT) (MB)    (FT/S) (FT/S/D)
FOLLY BEACH CMAN 0900   82     240/  7/  8 1014.4F
BUOY 41004       1000   82 82  230/ 16/ 17 1013.7R   4/ 6   2/ 8
BUOY 41008       1000   82 84  270/ 14/ 16 1014.9R   3/ 4   2/300/11
5E ST. MARYS GA  0900      84                N/A     2/ 4
FRYING PAN BUOY  NOT AVBL
BUOY 41025       1000          VRB 17/ 21  1012.2S   5/ 5   2/200/11
CAPE LOOKOUT NC  0900   80     240/ 12/ 14 1013.0R
BUOY 41002       0931   82 82  230/ 19/ 23 1016.4S   5/ 6   2/130/ 8
BUOY 41010       1000   83 83  210/ 14/ 16 1016.9F   4/ 7   2/130/ 7
BUOY 41012       NOT AVBL
ST AUGUSTINE FL  0900   77     240/  3/  4 1016.6S
CAPERS NEARSHORE 0900   83     250/ 16/ 19   N/A
FRIPP NEARSHORE  NOT AVBL


$$


USA.gov is the U.S. government's official web portal to all federal, state and local government web resources and services.